Regional Weather Roundup
Issued by NWS Green Bay, WI

Home | Current Version | Previous Version | Graphics & Text | Print | Product List | Glossary Off
Versions: 1 2 3 4 5 6 7 8 9 10 11 12 13 14 15 16 17 18 19 20 21 22 23 24 25 26 27 28 29 30 31 32 33 34 35 36 37 38 39 40 41 42 43 44 45 46 47 48 49 50

000
ASUS43 KGRB 200200
RWRGRB

NORTH-CENTRAL AND NORTHEAST WISCONSIN REGIONAL WEATHER ROUNDUP
NATIONAL WEATHER SERVICE GREEN BAY WI
800 PM CST THU JAN 19 2017

WIZ005-009-010>012-018-019-200300-
NORTH CENTRAL WISCONSIN

CITY           SKY/WX    TMP DP  RH WIND       PRES   REMARKS
IRONWOOD       NOT AVBL
MANITOWISH WTR NOT AVBL
ARBOR VITAE    NOT AVBL
EAGLE RIVER    NOT AVBL
LAND O LAKES   NOT AVBL
RHINELANDER    CLOUDY    32  31  96 CALM      29.80F
PHILLIPS       CLOUDY    32  30  92 SE5       29.78F
ANTIGO         NOT AVBL
TOMAHAWK       NOT AVBL
MERRILL        FOG       32  32 100 CALM        N/A  VSB 3/4
$$

WIZ013-073-200300-
NORTHEAST WISCONSIN

CITY           SKY/WX    TMP DP  RH WIND       PRES   REMARKS
IRON MOUNTAIN  FOG       31  29  92 CALM      29.81F VSB 1/4
MARINETTE      NOT AVBL
$$

WIZ017-030-035>037-045-200300-
CENTRAL WISCONSIN

CITY           SKY/WX    TMP DP  RH WIND       PRES   REMARKS
MEDFORD        NOT AVBL
WAUSAU         FOG       31  31 100 E6        29.79F VSB 1/2
MOSINEE        FOG       30  30 100 E6        29.81F VSB 1/4
MARSHFIELD     PTCLDY    32  30  92 E7        29.76F FOG
WISC RAPIDS    PTCLDY    33  32  96 E5        29.80F
STEVENS POINT  NOT AVBL
WAUPACA        NOT AVBL
SHAWANO        NOT AVBL
CLINTONVILLE   FOG       32  32 100 E3        29.84S VSB 1/4
WAUTOMA        NOT AVBL
$$

WIZ038-039-048-051-200300-
FOX VALLEY

CITY           SKY/WX    TMP DP  RH WIND       PRES   REMARKS
NWS GREEN BAY  FOG       34  34 100 E3        29.86F VSB 1/4
APPLETON       FOG       30  30 100 E5        29.82F VSB 1/4
OSHKOSH        FOG       32  31  96 CALM      29.82F VSB 1/2
FOND DU LAC    CLOUDY    33  30  88 NE3       29.82F FOG
$$

WIZ022-050-052-200300-
EAST CENTRAL WISCONSIN

CITY           SKY/WX    TMP DP  RH WIND       PRES   REMARKS
EPHRAIM        NOT AVBL
WASHINGTON ISL NOT AVBL
STURGEON BAY   FOG       30  30 100 SW3       29.87F VSB 1/4
MANITOWOC      NOT AVBL
SHEBOYGAN      FOG       32  31  96 CALM      29.85F VSB 1/4
$$

LMZ563-521-522-541>543-200300-
LAKESHORE

STATION/POSITION TIME  TEMP    WIND        PRES    VSBY  WAVE
                       AIR SEA DIR/SP/G                  HT/PER
                 (UTC) (F)     (DEG/KT/KT) (MB)    (MI)  (FT/S)
SHEBOYGAN LKSHOR 0100   34     150/  2/  2 1011.7F
KEWAUNEE LKSHORE 0130   32     220/  3/  7 1011.3F
SISTER BAY LKSHO 0150   32     190/  7/  8   N/A
$$




USA.gov is the U.S. government's official web portal to all federal, state and local government web resources and services.